Flag for United Kingdom Weather past 2 weeks in Wakefield, England, United Kingdom

Now
57 °F

Broken clouds.


Feels Like: 54 °F
Forecast: 43 / 63 °F
Wind: 15 mph from West

Location: Leeds And Bradford

Current Time: May 22, 2015 at 5:50:07 PM

Latest Report: May 22, 2015 at 5:20 PM


Visibility: N/A

Pressure: 30.18 "Hg

Humidity: 88%

Dew point: 54 °F

Location of WakefieldLocation

Historic Weather in Wakefield — Graph

°F

Wakefield temperature yesterday

Maximum temperature yesterday: 54 °F (at 11:20 AM)
Minimum temperature yesterday: 43 °F (at 1:50 AM)
Average temperature yesterday: 50 °F

Past Weeks' High & Low Weather Summary

 TemperatureHumidityPressure
High64 °F (May 11, 2:20 PM)100% (May 8, 4:20 PM)30.27 "Hg (May 8, 4:20 PM)
Low39 °F (May 8, 12:20 AM)37% (May 11, 1:20 PM)29.39 "Hg (May 19, 3:20 AM)
Average49 °F77%29.97 "Hg
* Reported May 7 4:20 PM — May 22 4:50 PM, Wakefield, Weather by CustomWeather, © 2015

Note: Actual official high and low records may vary slightly from our data, if they occured in-between our weather recording intervals... More about our weather records

Advertising

Wakefield weather history for previous 24 hours

 ConditionsComfort  
Time TempWeatherWind HumidityBarometerVisibility
4:50 PM
Fri, May 22
55 °FBroken clouds.20 mph94%30.18 "HgN/A
4:20 PM57 °FPartly sunny.14 mph88%30.18 "HgN/A
3:50 PM57 °FScattered clouds.17 mph88%30.18 "HgN/A
3:20 PM57 °FBroken clouds.18 mph82%30.21 "HgN/A
2:50 PM57 °FBroken clouds.13 mph88%30.21 "HgN/A
2:20 PM61 °FScattered clouds.14 mph77%30.18 "HgN/A
1:50 PM59 °FScattered clouds.18 mph82%30.18 "HgN/A
1:20 PM61 °FScattered clouds.14 mph77%30.18 "HgN/A
12:50 PM59 °FScattered clouds.21 mph82%30.18 "HgN/A
12:20 PM59 °FScattered clouds.17 mph82%30.18 "HgN/A
11:50 AM57 °FBroken clouds.17 mph88%30.21 "HgN/A
11:20 AM57 °FBroken clouds.16 mph88%30.21 "HgN/A
10:50 AM57 °FBroken clouds.15 mph88%30.21 "HgN/A
10:20 AM54 °FScattered showers. Broken clouds.14 mph94%30.21 "Hg6 mi
9:50 AM54 °FDrizzle. Broken clouds.13 mph94%30.21 "Hg6 mi
9:20 AM54 °FDrizzle. Broken clouds.13 mph94%30.21 "Hg6 mi
8:50 AM54 °FScattered showers. Broken clouds.13 mph94%30.21 "HgN/A
8:20 AM54 °FScattered clouds.12 mph94%30.21 "HgN/A
7:50 AM52 °FScattered clouds.12 mph94%30.21 "HgN/A
7:20 AM52 °FScattered clouds.10 mph94%30.21 "HgN/A
6:50 AM52 °FPassing clouds.14 mph88%30.18 "HgN/A
6:20 AM50 °FPassing clouds.12 mph94%30.21 "HgN/A
5:50 AM50 °FPassing clouds.13 mph94%30.21 "HgN/A
5:20 AM50 °FPassing clouds.15 mph94%30.21 "HgN/A
4:50 AM50 °FPassing clouds.16 mph94%30.21 "HgN/A
4:20 AM50 °FPassing clouds.18 mph94%30.21 "HgN/A
3:50 AM50 °FPassing clouds.18 mph94%30.21 "HgN/A
3:20 AM50 °FPassing clouds.18 mph94%30.21 "HgN/A
2:50 AM50 °FPassing clouds.17 mph88%30.21 "HgN/A
2:20 AM50 °FPassing clouds.15 mph88%30.21 "HgN/A
1:50 AM50 °FPassing clouds.18 mph88%30.21 "HgN/A
1:20 AM50 °FClear.15 mph88%30.24 "Hg10 mi
12:50 AM50 °FClear.14 mph88%30.24 "Hg10 mi
12:20 AM50 °FClear.16 mph88%30.24 "Hg10 mi
11:50 PM
Thu, May 21
50 °FClear.13 mph82%30.24 "Hg10 mi
11:20 PM50 °FClear.13 mph82%30.24 "Hg10 mi
10:20 PM50 °FPassing clouds.16 mph82%30.24 "HgN/A
9:50 PM50 °FPassing clouds.14 mph82%30.24 "HgN/A
9:20 PM50 °FPassing clouds.14 mph82%30.24 "HgN/A
8:50 PM50 °FSprinkles. Scattered clouds.8 mph76%30.27 "HgN/A
8:20 PM50 °FScattered showers. Passing clouds.12 mph76%30.27 "HgN/A
7:50 PM52 °FSprinkles. Scattered clouds.14 mph67%30.24 "HgN/A
7:20 PM52 °FPassing clouds.16 mph67%30.24 "HgN/A
6:50 PM52 °FPassing clouds.15 mph67%30.24 "HgN/A
6:20 PM54 °FPassing clouds.10 mph67%30.24 "HgN/A
5:50 PM54 °FPassing clouds.20 mph63%30.24 "HgN/A
5:20 PM54 °FPassing clouds.18 mph67%30.24 "HgN/A
Weather by CustomWeather, © 2015

See weather overviewHow to use our weather pages